Location: Larch Mountain
(45.5297°N, 122.0872°W)
Time: 16:34:12
(UTC-07:00)

ISS - All Passes

Search period start: 29 April 2016 00:00
Search period end: 09 May 2016 00:00
Orbit: 402 x 405 km, 51.6° (Epoch: 29 April)

Date Brightness Start Highest point End Pass type
(mag) Time Alt. Az. Time Alt. Az. Time Alt. Az.
29 Apr - 09:18:06 10° SSW 09:21:08 36° SE 09:24:11 10° ENE daylight
29 Apr - 10:54:25 10° W 10:57:34 44° NNW 11:00:44 10° NE daylight
29 Apr - 12:31:43 10° WNW 12:34:33 26° N 12:37:24 10° ENE daylight
29 Apr - 14:08:21 10° NW 14:11:31 46° NNE 14:14:42 10° E daylight
29 Apr - 15:44:56 10° WNW 15:47:56 34° SW 15:50:56 10° SSE daylight
30 Apr - 08:26:19 10° S 08:28:50 21° SE 08:31:22 10° E daylight
30 Apr - 10:01:48 10° WSW 10:05:02 65° NNW 10:08:18 10° ENE daylight
30 Apr - 11:39:02 10° WNW 11:41:54 27° N 11:44:47 10° NE daylight
30 Apr - 13:15:54 10° NW 13:18:57 34° NNE 13:21:59 10° E daylight
30 Apr - 14:52:20 10° WNW 14:55:34 60° SSW 14:58:47 10° SE daylight
01 May - 07:35:19 10° SSE 07:36:36 12° SE 07:37:52 10° ESE daylight
01 May - 09:09:18 10° SW 09:12:33 78° SSE 09:15:51 10° ENE daylight
01 May - 10:46:17 10° WNW 10:49:16 31° NNW 10:52:15 10° NE daylight
01 May - 12:23:24 10° NW 12:26:19 29° N 12:29:14 10° ENE daylight
01 May - 13:59:50 10° WNW 14:03:07 80° NNE 14:06:22 10° ESE daylight
01 May - 15:37:05 10° W 15:39:13 16° SW 15:41:21 10° S daylight
02 May - 08:17:02 10° SW 08:20:09 44° SE 08:23:17 10° ENE daylight
02 May - 09:53:32 10° W 09:56:39 40° NNW 09:59:46 10° NE daylight
02 May - 11:30:49 10° WNW 11:33:39 27° N 11:36:30 10° ENE daylight
02 May - 13:07:23 10° NW 13:10:35 51° NNE 13:13:47 10° E daylight
02 May - 14:44:03 10° WNW 14:46:55 28° SW 14:49:47 10° SSE daylight
03 May - 07:25:03 10° SSW 07:27:47 25° SE 07:30:32 10° E daylight
03 May - 09:00:51 10° WSW 09:04:04 56° NNW 09:07:18 10° ENE daylight
03 May - 10:38:07 10° WNW 10:40:59 27° N 10:43:50 10° ENE daylight
03 May - 12:14:55 10° NW 12:18:00 37° NNE 12:21:05 10° E daylight
03 May - 13:51:22 10° WNW 13:54:33 50° SW 13:57:43 10° SE daylight
04 May - 06:33:39 10° SSE 06:35:30 14° SE 06:37:22 10° E daylight
04 May - 08:08:16 10° WSW 08:11:33 89° NNW 08:14:50 10° ENE daylight
04 May - 09:45:22 10° WNW 09:48:18 30° N 09:51:15 10° NE daylight
04 May - 11:22:24 10° NW 11:25:21 30° N 11:28:18 10° ENE daylight
04 May - 12:58:49 10° WNW 13:02:06 87° SSW 13:05:22 10° ESE daylight
04 May - 14:36:24 10° WSW 14:38:07 14° SW 14:39:49 10° SSW daylight
05 May - 07:15:53 10° SW 07:19:04 53° SE 07:22:17 10° ENE daylight
05 May - 08:52:34 10° W 08:55:39 36° NNW 08:58:43 10° NE daylight
05 May - 10:29:48 10° WNW 10:32:40 27° N 10:35:32 10° ENE daylight
05 May - 12:06:19 10° WNW 12:09:34 59° NNE 12:12:48 10° ESE daylight
05 May - 13:43:08 10° W 13:45:49 24° SW 13:48:30 10° SSE daylight
06 May - 06:23:46 10° SSW 06:26:40 30° SE 06:29:34 10° ENE daylight
06 May - 07:59:50 10° W 08:03:01 50° NNW 08:06:14 10° NE daylight
06 May - 09:37:07 10° WNW 09:39:58 27° N 09:42:49 10° ENE daylight
06 May - 11:13:50 10° NW 11:16:58 41° NNE 11:20:05 10° E daylight
06 May - 12:50:20 10° WNW 12:53:27 41° SW 12:56:32 10° SE daylight
07 May - 05:32:06 10° S 05:34:20 17° SE 05:36:34 10° E daylight
07 May - 07:07:11 10° WSW 07:10:27 77° NNW 07:13:43 10° ENE daylight
07 May - 08:44:21 10° WNW 08:47:15 28° N 08:50:10 10° NE daylight
07 May - 10:21:18 10° NW 10:24:18 32° NNE 10:27:18 10° ENE daylight
07 May - 11:57:43 10° WNW 12:00:59 74° SSW 12:04:14 10° SE daylight
07 May - 13:35:53 10° WSW 13:36:55 11° SW 13:37:57 10° SSW daylight
08 May - 06:14:41 10° SW 06:17:55 64° SSE 06:21:10 10° ENE daylight
08 May - 07:51:32 10° W 07:54:33 34° NNW 07:57:35 10° NE daylight
08 May - 09:28:42 10° NW 09:31:36 28° N 09:34:29 10° ENE daylight
08 May - 11:05:10 10° WNW 11:08:26 68° NNE 11:11:42 10° ESE daylight
08 May - 12:42:09 10° W 12:44:37 20° SW 12:47:04 10° S daylight
